Weather History for KFSO - January, 2013

Change the Weather History Date:

Friday, January 25, 2013

  Actual Average (KPBG) Record (KPBG)
Temperature  
Mean Temperature 3 °F 16 °F  
Max Temperature 9 °F 27 °F 50 °F (1953)
Min Temperature -3 °F 5 °F -23 °F (1976)
Degree Days  
Heating Degree Days 62 49  
Month to date heating degree days 1200  
Since 1 July heating degree days 4086  
Cooling Degree Days 0 0  
Month to date cooling degree days 0  
Year to date cooling degree days 0  
Moisture  
Dew Point -8 °F    
Average Humidity 60    
Maximum Humidity 79    
Minimum Humidity 46    
Precipitation  
Precipitation 0.00 in - 0.69 in (1950)
Month to date precipitation  
Year to date precipitation  
Sea Level Pressure  
Sea Level Pressure 30.28 in    
Wind  
Wind Speed 5 mph (West)    
Max Wind Speed 14 mph    
Max Gust Speed 21 mph    
Visibility 9 miles    
Events      
T = Trace of Precipitation, MM = Missing Value Source: NWS Daily Summary

Daily Weather History Graph

Daily Weather History Graph

Search for Another Location

Airport or City:

Trip Planner

Search our weather history database for the weather conditions in past years. The results will help you decide how hot, cold, wet, or windy it might be!

Date:

Astronomy

Jan. 25, 2013 Rise Set
Actual Time 7:19 AM EST 4:50 PM EST
Civil Twilight 6:47 AM EST 5:22 PM EST
Nautical Twilight 6:11 AM EST 5:58 PM EST
Astronomical Twilight 5:37 AM EST 6:33 PM EST
Moon 3:45 PM EST (1/25) 5:57 AM EST (1/25)
Length of Visible Light 10h 35m
Length of Day
9h 31m
Waxing Gibbous, 98% of the Moon is Illuminated
Jan 25
Waxing Gibbous
Jan 26
Full
Feb 3
Last Quarter
Feb 10
New
Feb 17
First Quarter

Hourly Weather History & Observations

Time (EST) Temp. Windchill Dew Point Humidity Pressure Visibility Wind Dir Wind Speed Gust Speed Precip Events Conditions
12:15 AM 0.5 °F -12.3 °F -11.0 °F 58% 30.38 in 10.0 mi West 6.9 mph - N/A   Overcast
12:35 AM 0.3 °F -18.3 °F -11.2 °F 58% 30.38 in 10.0 mi West 13.8 mph 20.7 mph N/A   Overcast
12:55 AM 0.1 °F -14.0 °F -11.2 °F 59% 30.38 in 10.0 mi WNW 8.1 mph 17.3 mph N/A   Overcast
1:15 AM -0.4 °F -16.7 °F -11.7 °F 59% 30.38 in 10.0 mi WNW 10.4 mph 19.6 mph N/A   Overcast
1:35 AM -0.6 °F -14.9 °F -11.7 °F 59% 30.38 in - WNW 8.1 mph 16.1 mph N/A   Overcast
1:55 AM -0.6 °F -14.9 °F -11.7 °F 59% 30.38 in - WNW 8.1 mph - N/A   Overcast
2:15 AM -0.9 °F -14.1 °F -11.9 °F 60% 30.39 in 10.0 mi West 6.9 mph - N/A   Overcast
2:35 AM -1.8 °F -16.4 °F -12.3 °F 61% 30.39 in - West 8.1 mph - N/A   Scattered Clouds
2:55 AM -2.2 °F -14.2 °F -11.9 °F 63% 30.39 in - WNW 5.8 mph - N/A   Scattered Clouds
3:15 AM -1.8 °F -12.0 °F -11.4 °F 64% 30.39 in - West 4.6 mph - N/A   Mostly Cloudy
3:35 AM -1.7 °F -13.5 °F -11.2 °F 64% 30.39 in 10.0 mi West 5.8 mph - N/A   Overcast
3:55 AM -1.7 °F - -11.2 °F 64% 30.38 in 10.0 mi Calm Calm - N/A   Overcast
4:15 AM -1.7 °F -9.7 °F -11.2 °F 64% 30.39 in 10.0 mi West 3.5 mph - N/A   Overcast
4:35 AM -1.8 °F -15.2 °F -11.2 °F 64% 30.38 in 10.0 mi West 6.9 mph - N/A   Overcast
4:55 AM -1.8 °F -12.0 °F -11.2 °F 64% 30.38 in 10.0 mi West 4.6 mph - N/A   Overcast
5:15 AM -1.8 °F -17.5 °F -11.0 °F 65% 30.37 in 10.0 mi West 9.2 mph - N/A   Overcast
5:35 AM -2.4 °F -12.7 °F -11.4 °F 66% 30.38 in 10.0 mi West 4.6 mph - N/A   Overcast
5:55 AM -3.1 °F -11.4 °F -11.2 °F 68% 30.38 in - West 3.5 mph - N/A   Scattered Clouds
6:15 AM -3.1 °F -13.5 °F -10.7 °F 70% 30.38 in - West 4.6 mph - N/A   Clear
6:35 AM -3.1 °F -11.4 °F -10.7 °F 70% 30.38 in - WSW 3.5 mph - N/A   Clear
6:55 AM -3.1 °F -15.2 °F -10.5 °F 71% 30.38 in - West 5.8 mph - N/A   Clear
7:15 AM -3.1 °F -13.5 °F -10.7 °F 70% 30.38 in - West 4.6 mph - N/A   Clear
7:35 AM -3.1 °F -16.7 °F -10.7 °F 70% 30.38 in - West 6.9 mph - N/A   Clear
7:55 AM -3.1 °F -13.5 °F -11.2 °F 68% 30.38 in - West 4.6 mph - N/A   Clear
8:15 AM -2.7 °F -13.1 °F -11.4 °F 67% 30.38 in - West 4.6 mph - N/A   Clear
8:35 AM -1.5 °F -14.7 °F -11.2 °F 63% 30.38 in - WSW 6.9 mph - N/A   Clear
8:55 AM -0.6 °F -10.6 °F -11.2 °F 61% 30.38 in - West 4.6 mph - N/A   Clear
9:15 AM -0.0 °F -11.6 °F -11.2 °F 59% 30.38 in - West 5.8 mph - N/A   Clear
9:35 AM 0.9 °F -11.9 °F -11.2 °F 57% 30.38 in - WSW 6.9 mph - N/A   Clear
9:55 AM 1.6 °F -11.0 °F -11.2 °F 55% 30.38 in - WNW 6.9 mph - N/A   Clear
10:15 AM 1.9 °F -9.2 °F -11.4 °F 54% 30.37 in - West 5.8 mph - N/A   Clear
10:35 AM 4.1 °F -5.1 °F -9.6 °F 53% 30.37 in - West 4.6 mph - N/A   Clear
10:55 AM 4.5 °F -8.7 °F -9.6 °F 52% 30.36 in 10.0 mi SW 8.1 mph - N/A   Clear
11:15 AM 4.6 °F - -10.1 °F 51% 30.34 in 10.0 mi Calm Calm - N/A   Clear
11:35 AM 6.8 °F -3.5 °F -8.5 °F 50% 30.33 in 10.0 mi West 5.8 mph - N/A   Clear
11:55 AM 6.8 °F - -8.3 °F 50% 30.31 in 10.0 mi Calm Calm - N/A   Clear
12:15 PM 6.8 °F -3.5 °F -8.5 °F 50% 30.30 in 10.0 mi West 5.8 mph - N/A   Clear
12:35 PM 6.8 °F -0.1 °F -8.5 °F 50% 30.29 in 10.0 mi SSW 3.5 mph - N/A   Clear
12:55 PM 8.2 °F 1.6 °F -8.3 °F 47% 30.27 in 10.0 mi SSW 3.5 mph - N/A   Clear
1:15 PM 9.3 °F - -7.6 °F 46% 30.26 in 10.0 mi Calm Calm - N/A   Clear
1:35 PM 9.5 °F 1.2 °F -7.8 °F 46% 30.25 in 10.0 mi SSW 4.6 mph - N/A   Clear
1:55 PM 8.1 °F - -8.5 °F 47% 30.24 in 10.0 mi Calm Calm - N/A   Clear
2:15 PM 9.0 °F - -7.8 °F 47% 30.24 in 10.0 mi Calm Calm - N/A   Clear
2:35 PM 9.5 °F - -7.6 °F 46% 30.23 in 10.0 mi Calm Calm - N/A   Clear
2:55 PM 8.2 °F - -8.1 °F 47% 30.22 in 10.0 mi Calm Calm - N/A   Clear
3:15 PM 8.1 °F - -8.0 °F 48% 30.22 in 10.0 mi Calm Calm - N/A   Clear
3:35 PM 7.3 °F - -8.0 °F 50% 30.22 in 10.0 mi Calm Calm - N/A   Clear
3:55 PM 8.1 °F - -7.6 °F 49% 30.22 in 10.0 mi Calm Calm - N/A   Clear
4:15 PM 7.7 °F - -7.8 °F 49% 30.21 in 10.0 mi Calm Calm - N/A   Clear
4:35 PM 7.3 °F - -8.1 °F 49% 30.21 in 10.0 mi Calm Calm - N/A   Scattered Clouds
4:55 PM 7.2 °F - -8.0 °F 50% 30.21 in 10.0 mi Calm Calm - N/A   Mostly Cloudy
5:15 PM 6.8 °F - -6.5 °F 55% 30.20 in 10.0 mi Calm Calm - N/A   Overcast
5:35 PM 6.8 °F - -5.1 °F 58% 30.20 in 10.0 mi Calm Calm - N/A   Overcast
5:55 PM 6.8 °F - -4.7 °F 59% 30.19 in 10.0 mi Calm Calm - N/A   Overcast
6:15 PM 6.8 °F -0.1 °F -4.9 °F 59% 30.18 in 10.0 mi NNE 3.5 mph - N/A   Overcast
6:35 PM 6.8 °F -0.1 °F -4.2 °F 61% 30.18 in 10.0 mi NE 3.5 mph - N/A   Overcast
6:55 PM 6.8 °F -2.0 °F -4.2 °F 61% 30.17 in 10.0 mi NE 4.6 mph - N/A   Overcast
7:15 PM 6.8 °F - -4.0 °F 61% 30.17 in 10.0 mi Calm Calm - N/A   Overcast
7:35 PM 6.8 °F - -3.8 °F 62% 30.16 in 10.0 mi Calm Calm - N/A   Overcast
7:55 PM 6.8 °F -0.1 °F -4.0 °F 61% 30.16 in 10.0 mi NE 3.5 mph - N/A   Overcast
8:15 PM 6.8 °F - -3.8 °F 62% 30.15 in 10.0 mi Calm Calm - N/A   Overcast
8:35 PM 6.8 °F - -3.8 °F 62% 30.15 in 10.0 mi Calm Calm - N/A   Overcast
8:55 PM 6.8 °F - -3.6 °F 62% 30.15 in 10.0 mi Calm Calm - N/A   Overcast
9:15 PM 6.8 °F -0.1 °F -3.5 °F 63% 30.14 in 10.0 mi North 3.5 mph - N/A   Overcast
9:35 PM 6.8 °F -0.1 °F -3.1 °F 64% 30.14 in 10.0 mi NNE 3.5 mph - N/A   Overcast
9:55 PM 6.8 °F -0.1 °F -1.3 °F 69% 30.14 in 4.0 mi NNE 3.5 mph - N/A   Haze
10:15 PM 6.8 °F -0.1 °F -0.4 °F 72% 30.13 in 5.0 mi NNE 3.5 mph - N/A   Haze
10:35 PM 6.8 °F - -0.0 °F 74% 30.13 in 5.0 mi Calm Calm - N/A   Haze
10:55 PM 6.8 °F - 0.5 °F 75% 30.13 in 4.0 mi Calm Calm - N/A   Haze
11:15 PM 6.8 °F - 1.0 °F 77% 30.13 in 5.0 mi Calm Calm - N/A   Haze
11:35 PM 6.8 °F - 1.0 °F 77% 30.14 in 5.0 mi Calm Calm - N/A   Haze
11:55 PM 6.8 °F - 1.4 °F 79% 30.14 in 7.0 mi Calm Calm - N/A   Overcast